[[{"header":{"parameterUnit":"m.s-1","parameterCategory":1,"la1":30.2991,"la2":30.254,"lo1":-89.0895,"lo2":-89.0444,"dy":0.0017,"dx":0.0017,"nx":28,"ny":28,"refTime":"2025-07-03T09:00:00:Z","depth":0,"parameterNumber":2,"parameterNumberName":"U-component_of_WINDS"},"data":[0,0,0,0,0,0,0,0,0,0,0,0,0,0,0,0,0,0,0,0,0,0,0,0,0,0,0,0,0,0,0,0,0,0,0,0,0,0,0,0,0,0,0,0,0,0,0,0,0,0,0,0,0,0,0,0,0,0,1.4577,1.4579,0,1.4813,1.4815,1.4818,1.4862,1.486,1.4858,1.4857,1.5102,1.511,1.5118,0,0,0,0,0,0,0,0,0,0,0,0,0,1.4169,1.4176,1.4576,1.4579,1.4582,1.4812,1.4815,1.4819,1.4863,1.486,1.4858,1.4856,1.5099,1.5109,1.5119,0,0,0,0,0,0,0,0,0,0,0,0,0,1.437,1.4179,1.4576,1.4632,1.4639,1.4812,1.4816,1.482,1.4863,1.486,1.4857,1.4855,1.5096,1.5108,1.5121,1.5255,0,0,1.5159,1.5164,0,0,0,0,0,0,0,0,1.4358,1.4385,1.4621,1.4628,1.4637,1.4805,1.4762,1.4966,1.4864,1.4778,1.4857,1.4853,1.5006,1.5026,1.5076,1.5266,1.5277,1.516,1.5167,1.5173,1.5176,0,0,0,0,0,0,0,1.4344,1.4375,1.467,1.4624,1.4634,1.4647,1.4672,1.4801,1.4905,1.4785,1.4789,1.4816,1.501,1.5064,1.5082,1.5281,1.5159,1.5171,1.5178,1.5183,1.5597,1.56,0,0,0,0,0,0,1.432,1.4363,1.4663,1.4677,1.4487,1.4657,1.4685,1.4754,1.4904,1.4924,1.4819,1.4818,1.5044,1.5068,1.5091,1.5261,1.5173,1.5184,1.5192,1.5593,1.5597,1.5601,0,0,0,0,0,0,1.4311,1.4346,1.4653,1.4521,1.4561,1.4667,1.4744,1.476,1.4815,1.4929,1.4948,1.4855,1.5043,1.5074,1.5214,1.527,1.519,1.5201,1.5589,1.5594,1.5599,1.5599,0,0,0,0,0,0,1.4299,1.4343,1.4393,1.4522,1.4568,1.4771,1.4747,1.4767,1.4836,1.4836,1.4968,1.4987,1.5043,1.5196,1.5227,1.5286,1.5211,1.5585,1.5591,1.5598,1.5595,1.5604,1.5611,0,0,0,0,0,1.4284,1.4384,1.4395,1.4431,1.4633,1.4774,1.48,1.4862,1.484,1.4893,1.4967,1.4983,1.5258,1.521,1.5245,1.5308,1.5581,1.559,1.5597,1.5591,1.5602,1.5611,0,0,0,0,0,0,1.426,1.4402,1.4416,1.456,1.4654,1.4781,1.4849,1.4871,1.4974,1.4971,1.5044,1.5073,1.5211,1.5274,1.5217,1.5448,1.5419,1.5434,1.5402,1.5413,1.5421,1.5404,1.5221,0,0,0,0,0,1.4271,1.4371,1.4491,1.4606,1.4653,1.4743,1.4806,1.4845,1.4947,1.4987,1.5071,1.517,1.5279,1.535,1.5456,1.5604,1.5635,1.5665,1.5673,1.568,1.5693,1.5778,1.5794,1.5627,1.5627,1.5627,0,0,1.4295,1.4385,1.4444,1.4604,1.4681,1.4786,1.4776,1.4886,1.4966,1.5004,1.5143,1.5208,1.5323,1.5469,1.5537,1.5526,1.5746,1.569,1.5694,1.5704,1.5788,1.5804,1.5818,1.5632,1.5631,1.5631,0,0,1.4393,1.447,1.4576,1.4655,1.4772,1.4832,1.4857,1.4982,1.5026,1.5166,1.5198,1.5294,1.548,1.5562,1.5627,1.5759,1.5779,1.5792,1.5836,1.5919,1.5932,1.5944,1.5993,1.601,1.5804,1.5804,1.5804,0,1.4409,1.4566,1.4628,1.4738,1.4809,1.4848,1.4958,1.5031,1.5178,1.5226,1.5211,1.5447,1.5527,1.5694,1.5726,1.5777,1.5811,1.5778,1.5925,1.5938,1.595,1.5998,1.6016,1.5805,1.5805,1.5805,1.5805,0,1.4581,1.469,1.4762,1.4902,1.4981,1.509,1.5171,1.5243,1.5276,1.5338,1.5481,1.5579,1.5708,1.575,1.5783,1.5922,1.5912,1.591,1.5882,1.5966,1.6012,1.6031,1.5806,1.5806,1.5806,1.5806,0,0,1.4669,1.4844,1.487,1.4935,1.5069,1.5155,1.5268,1.5392,1.5454,1.5555,1.5652,1.581,1.5809,1.5884,1.5927,1.5999,1.6101,1.5989,1.5993,1.6008,1.6263,1.6265,1.6285,1.6114,1.6118,1.6121,1.6254,0,1.4785,1.4984,1.5045,1.5213,1.5317,1.5357,1.5455,1.5549,1.561,1.5708,1.5777,1.5888,1.5878,1.5924,1.5997,1.6073,1.6153,1.6064,1.6208,1.6212,1.6179,1.6309,1.631,1.6431,1.6273,1.6276,1.6278,0,1.4946,1.5049,1.5228,1.5351,1.5397,1.5483,1.5604,1.5696,1.5805,1.5845,1.5929,1.5967,1.6088,1.6053,1.6222,1.616,1.6223,1.6269,1.6276,1.6292,1.6251,1.6331,1.6471,1.649,1.6307,1.6304,1.6302,0,1.4995,1.5179,1.531,1.5365,1.5511,1.5572,1.5636,1.5741,1.5814,1.592,1.5968,1.6087,1.6152,1.6244,1.6314,1.6282,1.6479,1.6448,1.6517,1.6515,1.6557,1.6554,1.6711,1.6595,1.6595,1.6594,1.6594,0,1.5118,1.5226,1.5334,1.5415,1.5539,1.5608,1.5729,1.5795,1.589,1.5986,1.6028,1.6118,1.6203,1.6305,1.6361,1.6494,1.6523,1.656,1.6574,1.6557,1.6553,1.66,1.6594,1.6599,1.6598,1.6597,1.6596,0,1.5193,1.527,1.5416,1.5543,1.5578,1.5663,1.5773,1.5855,1.5918,1.604,1.6072,1.6173,1.6295,1.6374,1.6529,1.6567,1.6713,1.6724,1.6676,1.6683,1.6748,1.6741,1.6942,1.6973,1.6835,1.6836,1.6837,0,1.5267,1.5352,1.5488,1.5555,1.562,1.5727,1.5801,1.5874,1.595,1.6081,1.6148,1.6273,1.6376,1.657,1.6658,1.6779,1.6793,1.6856,1.6812,1.6793,1.6797,1.6791,1.6801,1.6863,1.6864,1.6865,1.6866,0,1.5392,1.5426,1.553,1.5649,1.5736,1.5833,1.593,1.5983,1.6073,1.6157,1.6282,1.6363,1.6522,1.6647,1.6776,1.6844,1.6871,1.6879,1.6901,1.6886,1.6856,1.6875,1.6697,1.6874,1.6873,1.6873,1.6872,1.6872,1.547,1.5548,1.5657,1.5773,1.5853,1.5944,1.6027,1.6102,1.6207,1.6342,1.6379,1.6511,1.6621,1.6796,1.6867,1.6972,1.6965,1.6997,1.7005,1.7012,1.7014,1.6838,1.6996,1.6996,1.6996,1.6995,1.6995,0,1.5598,1.567,1.5776,1.5911,1.6003,1.602,1.6129,1.6205,1.632,1.6419,1.6521,1.6667,1.6788,1.6886,1.7012,1.7078,1.7094,1.7109,1.7105,1.7121,1.7013,1.6982,1.7094,1.7094,1.7094,1.7094,1.7094,1.7094,1.5675,1.5808,1.5856,1.6031,1.6103,1.6232,1.6293,1.6378,1.6458,1.6618,1.6719,1.6782,1.6882,1.7016,1.7129,1.7155,1.72,1.7213,1.7242,1.7139,1.7128,1.7118,1.7089,1.7222,1.7222,1.7341,1.7342,1.7343]},{"header":{"parameterUnit":"m.s-1","parameterCategory":1,"la1":30.2991,"la2":30.254,"lo1":-89.0895,"lo2":-89.0444,"dy":0.0017,"dx":0.0017,"nx":28,"ny":28,"refTime":"2025-07-03T09:00:00:Z","depth":0,"parameterNumber":3,"parameterNumberName":"V-component_of_WINDS"},"data":[0,0,0,0,0,0,0,0,0,0,0,0,0,0,0,0,0,0,0,0,0,0,0,0,0,0,0,0,0,0,0,0,0,0,0,0,0,0,0,0,0,0,0,0,0,0,0,0,0,0,0,0,0,0,0,0,0,0,0.0112,0.0113,0,0.0254,0.0256,0.0257,0.0201,0.0198,0.0194,0.0191,0.0336,0.0343,0.035,0,0,0,0,0,0,0,0,0,0,0,0,0,-0.0212,-0.0206,0.0112,0.0113,0.0115,0.0254,0.0256,0.0258,0.0202,0.0198,0.0194,0.019,0.0334,0.0342,0.035,0,0,0,0,0,0,0,0,0,0,0,0,0,-0.0071,-0.0204,0.0111,0.0104,0.0105,0.0254,0.0256,0.0258,0.0203,0.0198,0.0193,0.0188,0.0331,0.0341,0.0351,0.0516,0,0,0.0383,0.0388,0,0,0,0,0,0,0,0,-0.0079,-0.0059,0.0103,0.0105,0.0106,0.0205,0.0195,0.0345,0.0204,0.0165,0.0191,0.0185,0.0296,0.0309,0.0347,0.0522,0.0529,0.0384,0.0391,0.0395,0.0398,0,0,0,0,0,0,0,-0.0088,-0.0065,0.0168,0.0106,0.0107,0.0093,0.0107,0.0223,0.0257,0.0168,0.0165,0.0182,0.0296,0.0337,0.035,0.0531,0.0384,0.0393,0.04,0.0404,0.0845,0.0851,0,0,0,0,0,0,-0.0098,-0.0073,0.0163,0.0172,-0.0001,0.0102,0.0119,0.0178,0.0256,0.0263,0.0186,0.0179,0.0322,0.0338,0.0355,0.0551,0.0395,0.0405,0.0411,0.084,0.0847,0.0852,0,0,0,0,0,0,-0.0105,-0.0077,0.0158,0.0049,0.0077,0.0113,0.018,0.0183,0.0224,0.0269,0.0275,0.0222,0.0318,0.034,0.0476,0.0555,0.0409,0.0419,0.0833,0.0842,0.085,0.0945,0,0,0,0,0,0,-0.0114,-0.0079,-0.0015,0.0051,0.0083,0.0278,0.0185,0.019,0.0243,0.0235,0.0304,0.0311,0.0316,0.046,0.0486,0.0567,0.0427,0.0826,0.0837,0.0847,0.0935,0.0956,0.0973,0,0,0,0,0,-0.0125,0.0007,-0.0011,0.0017,0.0164,0.0282,0.0301,0.0304,0.0249,0.0313,0.0341,0.0309,0.0542,0.0475,0.0503,0.0588,0.0822,0.0834,0.0846,0.0927,0.0952,0.0973,0,0,0,0,0,0,-0.005,0.0015,-0.0004,0.0153,0.0213,0.0272,0.0353,0.0331,0.0407,0.0396,0.0397,0.0413,0.0552,0.0584,0.0507,0.075,0.0673,0.0692,0.0725,0.0749,0.0768,0.0757,0.0436,0,0,0,0,0,-0.0015,0.0076,0.0128,0.0261,0.0292,0.0318,0.0369,0.0366,0.0428,0.0453,0.0491,0.0551,0.0638,0.0695,0.0777,0.0939,0.0952,0.1011,0.103,0.1046,0.1062,0.1148,0.1174,0.0893,0.0893,0.0893,0,0,0.0058,0.0104,0.0162,0.0277,0.0323,0.0417,0.0339,0.0442,0.0511,0.0468,0.0598,0.0628,0.0695,0.0844,0.0912,0.0875,0.1142,0.1061,0.1073,0.1081,0.1163,0.119,0.1214,0.0901,0.09,0.0898,0,0,0.0238,0.0283,0.0399,0.0446,0.0516,0.0532,0.0559,0.0623,0.0641,0.0771,0.0741,0.0822,0.0972,0.102,0.1064,0.1261,0.1233,0.1287,0.1387,0.1471,0.1493,0.1513,0.1582,0.1607,0.1303,0.1304,0.1304,0,0.032,0.0461,0.0461,0.0566,0.0617,0.0582,0.0698,0.0743,0.0837,0.0872,0.0829,0.1015,0.1058,0.1216,0.1264,0.1301,0.1332,0.128,0.149,0.151,0.1528,0.1594,0.162,0.131,0.1309,0.1308,0.1308,0,0.0557,0.0655,0.074,0.083,0.0891,0.1001,0.1017,0.1077,0.1069,0.1088,0.1221,0.127,0.1361,0.1398,0.1391,0.1556,0.153,0.1489,0.1412,0.1561,0.1623,0.1648,0.1318,0.1316,0.1314,0.1313,0,0,0.0792,0.0879,0.0911,0.095,0.1024,0.1099,0.1206,0.1295,0.1347,0.1411,0.1501,0.1627,0.1588,0.1638,0.1636,0.1709,0.186,0.1658,0.166,0.1694,0.2043,0.2074,0.2103,0.1842,0.1846,0.185,0.2037,0,0.0978,0.1167,0.1169,0.1343,0.1432,0.1399,0.1492,0.1546,0.1567,0.1645,0.1667,0.1756,0.1699,0.1729,0.18,0.1827,0.193,0.1813,0.1924,0.1928,0.1909,0.2136,0.2169,0.2343,0.2061,0.2065,0.2068,0,0.1221,0.1293,0.1476,0.1534,0.1572,0.1656,0.1736,0.1812,0.1871,0.1881,0.1936,0.1922,0.2029,0.1948,0.2096,0.2016,0.2061,0.2081,0.2087,0.2098,0.2008,0.2152,0.2399,0.2425,0.2107,0.2104,0.2101,0,0.1373,0.1516,0.1643,0.1678,0.175,0.1809,0.1842,0.1897,0.1949,0.2019,0.2053,0.2134,0.2179,0.2241,0.2249,0.2189,0.2397,0.2316,0.2407,0.2407,0.2453,0.245,0.271,0.2482,0.2481,0.2481,0.248,0,0.1581,0.1694,0.1712,0.179,0.1915,0.1915,0.2038,0.2065,0.2114,0.2196,0.2172,0.2249,0.2254,0.2332,0.2338,0.2459,0.2479,0.2489,0.2489,0.2492,0.2491,0.2522,0.251,0.2488,0.2486,0.2485,0.2484,0,0.1773,0.1789,0.1926,0.1981,0.1998,0.2087,0.2135,0.2209,0.2226,0.233,0.2354,0.2381,0.2472,0.2485,0.2592,0.2595,0.274,0.2728,0.272,0.2718,0.2808,0.2799,0.3097,0.3136,0.2882,0.2885,0.2887,0,0.1905,0.1991,0.2055,0.2108,0.2144,0.223,0.2283,0.2286,0.2342,0.2415,0.248,0.2569,0.264,0.2787,0.2815,0.2896,0.2885,0.2984,0.2897,0.2896,0.2886,0.2881,0.2889,0.3001,0.3004,0.3006,0.3008,0,0.2137,0.214,0.2218,0.2299,0.2363,0.2426,0.2486,0.2531,0.254,0.2604,0.2697,0.2752,0.2861,0.2948,0.3028,0.3059,0.3036,0.3034,0.306,0.3063,0.3055,0.306,0.2766,0.3028,0.3026,0.3024,0.3023,0.3023,0.2303,0.2377,0.2434,0.2521,0.2565,0.2621,0.2693,0.2718,0.2796,0.2885,0.2881,0.2983,0.3038,0.3142,0.3179,0.3258,0.3225,0.3262,0.3271,0.328,0.3289,0.3042,0.3272,0.3271,0.3271,0.327,0.327,0,0.2534,0.2568,0.2648,0.2732,0.2799,0.277,0.2834,0.2892,0.2983,0.3036,0.3106,0.3212,0.3296,0.333,0.3412,0.3468,0.3459,0.349,0.3486,0.3493,0.3313,0.3283,0.3495,0.3495,0.3495,0.3495,0.3495,0.3495,0.2662,0.2785,0.2795,0.2939,0.2972,0.3072,0.3111,0.3162,0.3204,0.3323,0.3393,0.3414,0.346,0.3544,0.362,0.3627,0.3658,0.3694,0.3697,0.3529,0.3506,0.3484,0.3456,0.3701,0.3701,0.387,0.3871,0.3873]}]]